FW7372 Weather Reports


time (UTC)temp
F
wind
direction
speed
knots
gust
knots
rain 1hr
in
rain 24hr
in
rain mn
in
humidity
%
barometer
mb
20260507195816 82 153 5.2 13.9 0.00 0.00 0.00 78 1025.3
20260507195316 82 150 7.0 13.9 0.00 0.00 0.00 78 1025.3
20260507193746 82 175 7.0 13.9 0.00 0.00 0.00 77 1025.6
20260507193246 82 152 6.1 13.9 0.00 0.00 0.00 78 1025.5
20260507192746 82 119 6.1 13.9 0.00 0.00 0.00 77 1025.6
20260507192246 82 167 7.0 13.9 0.00 0.00 0.00 76 1025.5
20260507191745 82 142 6.1 13.9 0.00 0.00 0.00 78 1025.6
20260507191245 82 177 6.1 13.9 0.00 0.00 0.00 77 1025.7
20260507190745 82 173 5.2 13.9 0.00 0.00 0.00 77 1025.8
20260507184659 83 141 6.1 13.9 0.00 0.00 0.00 76 1025.6
20260507184159 83 130 7.0 13.9 0.00 0.00 0.00 76 1025.8
20260507183659 83 221 7.0 13.9 0.00 0.00 0.00 75 1025.9
20260507183159 83 154 7.0 13.9 0.00 0.00 0.00 76 1025.9
20260507182658 83 184 7.0 13.9 0.00 0.00 0.00 77 1026.2
20260507182158 83 209 8.7 13.9 0.00 0.00 0.00 76 1026.1
20260507181658 83 185 8.7 13.9 0.00 0.00 0.00 76 1026.0
20260507181158 84 203 8.7 13.9 0.00 0.00 0.00 76 1026.2
20260507180658 84 186 7.8 13.9 0.00 0.00 0.00 76 1026.1
20260507180158 84 160 7.0 13.9 0.00 0.00 0.00 75 1026.1
20260507175658 84 165 6.1 13.9 0.00 0.00 0.00 75 1026.3
20260507175157 84 169 6.1 13.9 0.00 0.00 0.00 75 1026.5
20260507173112 85 140 5.2 13.9 0.00 0.00 0.00 75 1026.8
20260507172611 85 144 5.2 13.9 0.00 0.00 0.00 74 1026.8
20260507172111 85 125 5.2 13.9 0.00 0.00 0.00 75 1026.7
20260507171056 85 161 5.2 13.9 0.00 0.00 0.00 75 1026.8
20260507170555 85 141 6.1 13.9 0.00 0.00 0.00 73 1026.9
20260507170055 85 134 5.2 13.9 0.00 0.00 0.00 74 1027.0
20260507165555 85 104 6.1 13.9 0.00 0.00 0.00 75 1027.0
20260507165055 85 121 6.1 13.9 0.00 0.00 0.00 74 1027.0
20260507164555 85 137 7.0 13.9 0.00 0.00 0.00 74 1027.1
20260507164055 85 104 6.1 13.9 0.00 0.00 0.00 75 1027.3
20260507163040 85 150 6.1 13.9 0.00 0.00 0.00 75 1027.4
20260507162540 85 193 7.8 13.9 0.00 0.00 0.00 73 1027.2
20260507162040 85 204 7.0 13.9 0.00 0.00 0.00 73 1027.5
20260507161540 85 117 6.1 13.9 0.00 0.00 0.00 74 1027.4
20260507161041 85 116 7.0 13.9 0.00 0.00 0.00 73 1027.6
20260507160540 85 135 7.0 13.9 0.00 0.00 0.00 72 1027.8
20260507160040 85 148 7.0 13.9 0.00 0.00 0.00 74 1027.8
20260507155025 85 189 7.8 13.9 0.00 0.00 0.00 74 1027.8
20260507154525 85 185 7.0 12.2 0.00 0.00 0.00 74 1028.0
20260507154025 85 139 7.8 12.2 0.00 0.00 0.00 75 1027.8
20260507153010 85 202 7.8 12.2 0.00 0.00 0.00 75 1028.0
20260507151955 84 202 7.0 12.2 0.00 0.00 0.00 75 1027.8
20260507151455 84 199 7.8 12.2 0.00 0.00 0.00 75 1028.0
20260507150955 84 168 7.8 12.2 0.00 0.00 0.00 76 1027.7
20260507150455 85 133 7.8 12.2 0.00 0.00 0.00 74 1027.8
20260507145954 85 156 7.0 12.2 0.00 0.00 0.00 73 1028.0
20260507145454 85 153 6.1 12.2 0.00 0.00 0.00 73 1027.7
20260507144954 85 82 7.0 12.2 0.00 0.00 0.00 72 1027.9
20260507144454 85 154 7.0 13.9 0.00 0.00 0.00 72 1027.8
20260507143954 85 143 7.0 13.9 0.00 0.00 0.00 74 1028.0
20260507142939 85 137 7.0 13.9 0.00 0.00 0.00 74 1027.4
20260507142438 84 155 7.0 13.9 0.00 0.00 0.00 75 1027.8
20260507141939 83 146 7.8 13.9 0.00 0.00 0.00 73 1027.8
20260507141437 82 157 7.8 13.9 0.00 0.00 0.00 77 1027.5
20260507140938 83 161 8.7 13.9 0.00 0.00 0.00 75 1027.8
20260507140438 84 160 7.0 12.2 0.00 0.00 0.00 75 1027.5
20260507135938 85 186 7.0 12.2 0.00 0.00 0.00 75 1027.6
20260507135438 86 184 6.1 12.2 0.00 0.00 0.00 75 1027.7
20260507134422 85 201 7.0 12.2 0.00 0.00 0.00 76 1027.6
20260507133922 84 223 7.0 11.3 0.00 0.00 0.00 76 1027.7
20260507133421 84 220 7.0 11.3 0.00 0.00 0.00 76 1027.5
20260507132921 84 224 8.7 11.3 0.00 0.00 0.00 76 1027.6
20260507132421 84 220 7.8 11.3 0.00 0.00 0.00 75 1027.7
20260507131921 84 158 6.1 11.3 0.00 0.00 0.00 76 1027.7
20260507130906 84 202 6.1 11.3 0.00 0.00 0.00 76 1028.0
20260507125851 84 179 6.1 12.2 0.00 0.00 0.00 76 1027.7
20260507124835 83 177 6.1 12.2 0.00 0.00 0.00 79 1027.6
20260507124335 82 182 5.2 11.3 0.00 0.00 0.00 80 1027.6
20260507123835 82 220 6.1 11.3 0.00 0.00 0.00 79 1027.9
20260507123335 82 207 6.1 11.3 0.00 0.00 0.00 78 1027.6
20260507122835 83 187 7.0 12.2 0.00 0.00 0.00 78 1027.8
20260507122335 82 221 6.1 12.2 0.00 0.00 0.00 79 1027.9
20260507121835 82 205 6.1 12.2 0.00 0.00 0.00 79 1027.8
20260507121335 82 234 7.0 12.2 0.00 0.00 0.00 79 1027.8
20260507115805 81 186 6.1 11.3 0.00 0.00 0.00 80 1027.8
20260507115307 81 179 6.1 11.3 0.00 0.00 0.00 80 1027.9
20260507114805 81 195 7.0 11.3 0.00 0.00 0.00 81 1027.8
20260507114305 81 200 7.0 11.3 0.00 0.00 0.00 81 1027.8
20260507113248 80 126 5.2 10.4 0.00 0.00 0.00 84 1027.6
20260507112748 79 176 4.3 10.4 0.00 0.00 0.00 85 1027.9
20260507112248 79 176 4.3 10.4 0.00 0.00 0.00 84 1027.7
20260507111748 79 169 3.5 10.4 0.00 0.00 0.00 85 1027.6
20260507110733 79 153 2.6 10.4 0.00 0.00 0.00 84 1027.5
20260507110232 79 130 3.5 10.4 0.00 0.00 0.00 84 1027.6
20260507105217 79 147 4.3 10.4 0.00 0.00 0.00 86 1027.7
20260507104717 79 178 4.3 10.4 0.00 0.00 0.00 85 1027.6
20260507104217 79 223 5.2 10.4 0.00 0.00 0.00 84 1027.5
20260507103717 79 220 4.3 10.4 0.00 0.00 0.00 85 1027.7
20260507103217 79 237 5.2 10.4 0.00 0.00 0.00 86 1027.3
20260507102717 79 166 5.2 10.4 0.00 0.00 0.00 86 1027.3
20260507102217 78 121 2.6 10.4 0.00 0.00 0.00 86 1027.3
20260507101717 78 156 4.3 10.4 0.00 0.00 0.00 86 1027.2
20260507101217 78 120 2.6 10.4 0.00 0.00 0.00 86 1027.4
20260507100717 78 192 3.5 10.4 0.00 0.00 0.00 86 1027.4
20260507100217 78 154 2.6 10.4 0.00 0.00 0.00 86 1027.3
20260507095717 78 187 3.5 10.4 0.00 0.00 0.00 86 1027.1
20260507095217 77 163 3.5 10.4 0.00 0.00 0.00 86 1027.5
20260507094202 78 157 3.5 10.4 0.00 0.00 0.00 86 1027.0
20260507093702 78 206 3.5 10.4 0.00 0.00 0.00 86 1027.2
20260507093201 78 216 5.2 11.3 0.00 0.00 0.00 86 1026.9
20260507092146 78 213 5.2 11.3 0.00 0.00 0.00 87 1026.7
20260507091646 78 230 5.2 10.4 0.00 0.00 0.00 87 1026.9
20260507091146 78 173 3.5 10.4 0.00 0.00 0.00 86 1027.0
20260507090646 78 167 5.2 10.4 0.00 0.00 0.00 86 1026.5
20260507090146 78 155 4.3 10.4 0.00 0.00 0.00 87 1026.8
20260507085646 78 156 4.3 10.4 0.00 0.00 0.00 87 1026.5
20260507084631 78 190 5.2 10.4 0.00 0.00 0.00 87 1026.6
20260507084131 78 181 5.2 10.4 0.00 0.00 0.00 87 1026.5
20260507083631 78 184 6.1 10.4 0.00 0.00 0.00 87 1026.7
20260507083131 78 201 6.1 10.4 0.00 0.00 0.00 87 1027.0
20260507082116 78 222 5.2 10.4 0.00 0.00 0.00 87 1026.9
20260507081616 78 197 5.2 10.4 0.00 0.00 0.00 86 1026.5
20260507081115 78 236 4.3 10.4 0.00 0.00 0.00 86 1026.5
20260507080615 78 191 4.3 10.4 0.00 0.00 0.00 86 1026.8
20260507080115 78 180 3.5 10.4 0.00 0.00 0.00 86 1026.8
20260507075615 78 184 4.3 10.4 0.00 0.00 0.00 86 1026.8
20260507075115 78 160 3.5 10.4 0.00 0.00 0.00 86 1026.8
20260507074615 78 241 6.1 11.3 0.00 0.00 0.00 86 1026.9
20260507073600 78 178 4.3 11.3 0.00 0.00 0.00 86 1026.8
20260507073100 78 208 3.5 11.3 0.00 0.00 0.00 86 1026.7
20260507072559 78 247 5.2 11.3 0.00 0.00 0.00 86 1026.7
20260507072059 78 193 4.3 11.3 0.00 0.00 0.00 86 1026.8
20260507071559 78 208 4.3 11.3 0.00 0.00 0.00 86 1026.8
20260507071059 78 206 4.3 11.3 0.00 0.00 0.00 85 1026.6
20260507070559 78 269 4.3 11.3 0.00 0.00 0.00 85 1026.9
20260507070059 78 178 2.6 11.3 0.00 0.00 0.00 85 1027.0
20260507065558 78 192 3.5 11.3 0.00 0.00 0.00 85 1026.8
20260507064542 78 213 4.3 11.3 0.00 0.00 0.00 85 1027.2
20260507064042 78 227 5.2 11.3 0.00 0.00 0.00 85 1027.1
20260507063542 78 199 4.3 11.3 0.00 0.00 0.00 85 1026.8
20260507063041 78 205 4.3 11.3 0.00 0.00 0.00 86 1027.3
20260507062540 78 192 4.3 11.3 0.00 0.00 0.00 86 1027.2
20260507062040 78 143 4.3 11.3 0.00 0.00 0.00 86 1027.1
20260507061540 78 188 4.3 11.3 0.00 0.00 0.00 86 1027.3
20260507061040 78 117 4.3 11.3 0.00 0.00 0.00 86 1027.4
20260507060540 78 129 5.2 11.3 0.00 0.00 0.00 85 1027.6
20260507060040 78 142 2.6 11.3 0.00 0.00 0.00 85 1027.6
20260507055540 78 125 2.6 11.3 0.00 0.00 0.00 85 1027.6
20260507055040 78 206 4.3 11.3 0.00 0.00 0.00 85 1027.9
20260507054540 78 183 4.3 11.3 0.00 0.00 0.00 85 1027.8
20260507053010 78 147 3.5 11.3 0.00 0.00 0.00 86 1027.7
20260507052510 78 191 4.3 11.3 0.00 0.00 0.00 86 1027.7
20260507051454 78 163 4.3 11.3 0.00 0.00 0.00 87 1027.9
20260507050954 78 156 2.6 11.3 0.00 0.00 0.00 87 1027.8
20260507050454 78 145 4.3 11.3 0.00 0.00 0.00 86 1027.9
20260507045954 79 163 3.5 11.3 0.00 0.00 0.00 86 1028.1
20260507045454 79 155 5.2 11.3 0.00 0.00 0.00 85 1028.2
20260507044954 79 197 7.8 11.3 0.00 0.00 0.00 85 1028.3
20260507043938 79 156 5.2 10.4 0.00 0.00 0.00 85 1028.2
20260507043438 79 157 5.2 10.4 0.00 0.00 0.00 85 1028.6
20260507042422 79 206 7.0 10.4 0.00 0.00 0.00 85 1028.7
20260507040852 79 148 3.5 10.4 0.00 0.00 0.00 85 1028.7
20260507040352 79 187 7.0 10.4 0.00 0.00 0.00 84 1028.9
20260507035852 79 167 5.2 11.3 0.00 0.00 0.00 84 1028.7
20260507035352 79 184 5.2 11.3 0.00 0.00 0.00 84 1028.9
20260507034852 79 198 6.1 11.3 0.00 0.00 0.00 84 1028.9
20260507034352 79 179 6.1 11.3 0.00 0.00 0.00 85 1028.8
20260507033337 79 179 7.0 11.3 0.00 0.00 0.00 84 1028.7
20260507032837 79 169 5.2 11.3 0.00 0.00 0.00 84 1028.9
20260507032337 79 174 6.1 12.2 0.00 0.00 0.00 84 1028.9
20260507031321 79 164 7.0 12.2 0.00 0.00 0.00 84 1029.0
20260507030821 79 154 5.2 11.3 0.00 0.00 0.00 84 1029.2
20260507030321 79 208 7.0 11.3 0.00 0.00 0.00 84 1029.0
20260507025821 79 141 5.2 11.3 0.00 0.00 0.00 84 1029.1
20260507024806 79 176 5.2 11.3 0.00 0.00 0.00 84 1029.3
20260507024306 79 174 6.1 11.3 0.00 0.00 0.00 84 1029.2
20260507023806 79 168 5.2 11.3 0.00 0.00 0.00 84 1029.4
20260507023306 79 195 7.0 10.4 0.00 0.00 0.00 84 1029.3
20260507022806 79 159 6.1 10.4 0.00 0.00 0.00 85 1029.0
20260507022306 79 164 5.2 10.4 0.00 0.00 0.00 85 1029.2
20260507021806 79 182 7.0 10.4 0.00 0.00 0.00 85 1029.1
20260507021306 79 149 5.2 13.0 0.00 0.00 0.00 85 1029.4
20260507020251 79 177 7.0 11.3 0.00 0.00 0.00 85 1029.3
20260507014720 79 111 5.2 11.3 0.00 0.00 0.00 86 1029.0
20260507013705 79 135 5.2 11.3 0.00 0.00 0.00 86 1029.2
20260507013205 79 55 5.2 12.2 0.00 0.00 0.00 86 1028.8
20260507012704 79 100 5.2 12.2 0.00 0.00 0.00 86 1028.9
20260507012205 79 140 5.2 12.2 0.00 0.00 0.00 86 1028.8
20260507010649 79 139 5.2 10.4 0.00 0.00 0.00 85 1028.7
20260507010149 79 120 4.3 10.4 0.00 0.00 0.00 86 1028.7
20260507005649 79 145 4.3 10.4 0.00 0.00 0.00 86 1028.9
20260507005148 79 157 6.1 10.4 0.00 0.00 0.00 86 1028.8
20260507004648 79 186 7.0 10.4 0.00 0.00 0.00 86 1028.6
20260507003632 79 186 6.1 10.4 0.00 0.00 0.00 86 1028.5
20260507003132 79 141 5.2 10.4 0.00 0.00 0.00 86 1028.3
20260507002633 79 141 6.1 10.4 0.00 0.00 0.00 86 1028.4
20260507002133 79 164 2.6 10.4 0.00 0.00 0.00 85 1028.1
20260507001632 79 130 4.3 10.4 0.00 0.00 0.00 85 1028.3
20260507001133 79 176 4.3 10.4 0.00 0.00 0.00 85 1028.3
20260507000632 79 175 5.2 10.4 0.00 0.00 0.00 85 1028.3
20260507000132 79 142 3.5 10.4 0.00 0.00 0.00 85 1028.3
20260506235632 79 196 6.1 10.4 0.00 0.00 0.00 85 1028.1
20260506235133 79 144 5.2 10.4 0.00 0.00 0.00 85 1028.0
20260506234633 79 154 4.3 10.4 0.00 0.00 0.00 85 1027.9
20260506234132 79 167 4.3 11.3 0.00 0.00 0.00 85 1028.0
20260506233632 79 187 6.1 11.3 0.00 0.00 0.00 85 1027.8
20260506233133 79 125 4.3 9.6 0.00 0.00 0.00 85 1027.8
20260506232633 79 116 2.6 9.6 0.00 0.00 0.00 85 1027.8
20260506232132 79 178 3.5 9.6 0.00 0.00 0.00 84 1027.8
20260506231632 79 173 3.5 9.6 0.00 0.00 0.00 84 1027.6
20260506231132 79 166 5.2 9.6 0.00 0.00 0.00 84 1027.4
20260506230632 79 153 4.3 9.6 0.00 0.00 0.00 84 1027.4
20260506225617 79 145 5.2 9.6 0.00 0.00 0.00 84 1027.3
20260506225116 79 117 3.5 11.3 0.00 0.00 0.00 84 1027.4
20260506224617 80 165 3.5 11.3 0.00 0.00 0.00 83 1027.3
20260506224116 80 147 3.5 11.3 0.00 0.00 0.00 83 1027.1
20260506223616 80 124 4.3 11.3 0.00 0.00 0.00 82 1027.1
20260506223117 80 166 5.2 11.3 0.00 0.00 0.00 82 1027.2
20260506222102 80 126 4.3 11.3 0.00 0.00 0.00 82 1027.0
20260506221602 80 110 5.2 11.3 0.00 0.00 0.00 81 1027.1
20260506221102 80 134 4.3 11.3 0.00 0.00 0.00 81 1027.0
20260506220602 80 122 4.3 11.3 0.00 0.00 0.00 81 1027.1
20260506215602 80 137 6.1 11.3 0.00 0.00 0.00 81 1026.8
20260506215102 80 151 4.3 11.3 0.00 0.00 0.00 81 1026.9
20260506214601 80 163 7.0 11.3 0.00 0.00 0.00 81 1026.9
20260506214101 80 114 6.1 11.3 0.00 0.00 0.00 81 1026.6
20260506213601 80 161 7.0 11.3 0.00 0.00 0.00 80 1026.6
20260506213059 81 122 5.2 12.2 0.00 0.00 0.00 80 1026.5
20260506212559 81 135 6.1 12.2 0.00 0.00 0.00 80 1026.4
20260506212058 81 148 5.2 12.2 0.00 0.00 0.00 80 1026.4
20260506211043 81 157 7.0 12.2 0.00 0.00 0.00 81 1026.5
20260506210028 81 136 7.0 12.2 0.00 0.00 0.00 81 1026.3
20260506205528 81 156 7.8 12.2 0.00 0.00 0.00 81 1026.5
20260506203958 81 130 5.2 12.2 0.00 0.00 0.00 82 1026.6
20260506203458 81 166 7.0 12.2 0.00 0.00 0.00 82 1026.6
20260506202957 81 90 6.1 12.2 0.00 0.00 0.00 82 1026.4
20260506202457 81 118 6.1 12.2 0.00 0.00 0.00 82 1026.2
20260506201956 81 167 7.0 12.2 0.00 0.00 0.00 82 1026.4
20260506201455 81 174 7.0 11.3 0.00 0.00 0.00 82 1026.2
20260506200955 81 163 5.2 11.3 0.00 0.00 0.00 81 1026.5
20260506200455 81 167 6.1 13.0 0.00 0.00 0.00 80 1026.4
20260506195954 82 132 6.1 13.0 0.00 0.00 0.00 80 1026.6